Time,TemperatureF,DewpointF,PressureIn,WindDirection,WindDirectionDegrees,WindSpeedMPH,WindSpeedGustMPH,Humidity,HourlyPrecipIn,Conditions,Clouds,dailyrainin,SoftwareType,DateUTC
2013-09-11 00:00:00,74.3,68.8,30.16,South,180,0.0,0.0,83,0.00,,,0.00,Wunderground v.1.15,2013-09-11 04:00:00,
2013-09-11 00:04:00,74.6,68.7,30.16,South,180,0.0,0.0,82,0.00,,,0.00,Wunderground v.1.15,2013-09-11 04:04:00,
2013-09-11 00:09:00,74.8,69.3,30.16,South,180,0.0,0.0,83,0.00,,,0.00,Wunderground v.1.15,2013-09-11 04:09:00,
2013-09-11 00:14:00,74.6,69.1,30.16,South,180,0.0,0.0,83,0.00,,,0.00,Wunderground v.1.15,2013-09-11 04:14:00,
2013-09-11 00:20:00,74.2,68.7,30.16,South,180,0.0,0.0,83,0.00,,,0.00,Wunderground v.1.15,2013-09-11 04:20:00,
2013-09-11 00:26:00,73.9,68.8,30.16,South,180,0.0,0.0,84,0.00,,,0.00,Wunderground v.1.15,2013-09-11 04:26:00,
2013-09-11 00:31:00,73.6,68.8,30.16,South,180,0.0,0.0,85,0.00,,,0.00,Wunderground v.1.15,2013-09-11 04:31:00,
2013-09-11 00:38:00,73.2,68.8,30.16,South,180,0.0,0.0,86,0.00,,,0.00,Wunderground v.1.15,2013-09-11 04:38:00,
2013-09-11 00:43:00,72.8,68.4,30.16,South,180,0.0,0.0,86,0.00,,,0.00,Wunderground v.1.15,2013-09-11 04:43:00,
2013-09-11 00:48:00,72.5,68.4,30.15,South,180,0.0,0.0,87,0.00,,,0.00,Wunderground v.1.15,2013-09-11 04:48:00,
2013-09-11 00:54:00,72.2,68.4,30.15,South,180,0.0,0.0,88,0.00,,,0.00,Wunderground v.1.15,2013-09-11 04:54:00,
2013-09-11 00:59:00,72.0,68.2,30.15,South,180,0.0,0.0,88,0.00,,,0.00,Wunderground v.1.15,2013-09-11 04:59:00,
2013-09-11 01:04:00,71.8,68.1,30.15,South,180,0.0,0.0,88,0.00,,,0.00,Wunderground v.1.15,2013-09-11 05:04:00,
2013-09-11 01:09:00,71.7,68.0,30.15,South,180,0.0,0.0,88,0.00,,,0.00,Wunderground v.1.15,2013-09-11 05:09:00,
2013-09-11 01:15:00,71.6,67.9,30.15,South,180,0.0,0.0,88,0.00,,,0.00,Wunderground v.1.15,2013-09-11 05:15:00,
2013-09-11 01:20:00,71.4,67.7,30.15,South,180,0.0,0.0,88,0.00,,,0.00,Wunderground v.1.15,2013-09-11 05:20:00,
2013-09-11 01:26:00,71.2,67.8,30.15,South,180,0.0,0.0,89,0.00,,,0.00,Wunderground v.1.15,2013-09-11 05:26:00,
2013-09-11 01:31:00,71.0,67.6,30.15,South,180,0.0,0.0,89,0.00,,,0.00,Wunderground v.1.15,2013-09-11 05:31:00,
2013-09-11 01:36:00,70.8,67.4,30.15,South,180,0.0,0.0,89,0.00,,,0.00,Wunderground v.1.15,2013-09-11 05:36:00,
2013-09-11 01:42:00,70.6,67.5,30.15,South,180,0.0,0.0,90,0.00,,,0.00,Wunderground v.1.15,2013-09-11 05:42:00,
2013-09-11 01:47:00,70.4,67.3,30.14,South,180,0.0,0.0,90,0.00,,,0.00,Wunderground v.1.15,2013-09-11 05:47:00,
2013-09-11 01:53:00,70.3,67.2,30.14,South,180,0.0,0.0,90,0.00,,,0.00,Wunderground v.1.15,2013-09-11 05:53:00,
2013-09-11 01:58:00,70.2,67.4,30.14,South,180,0.0,0.0,91,0.00,,,0.00,Wunderground v.1.15,2013-09-11 05:58:00,
2013-09-11 02:03:00,70.1,67.3,30.14,South,180,0.0,0.0,91,0.00,,,0.00,Wunderground v.1.15,2013-09-11 06:03:00,
2013-09-11 02:09:00,70.0,66.9,30.14,South,180,0.0,0.0,90,0.00,,,0.00,Wunderground v.1.15,2013-09-11 06:09:00,
2013-09-11 02:15:00,70.0,67.3,30.14,South,180,0.0,0.0,91,0.00,,,0.00,Wunderground v.1.15,2013-09-11 06:15:00,
2013-09-11 02:20:00,69.9,67.2,30.14,South,180,0.0,0.0,91,0.00,,,0.00,Wunderground v.1.15,2013-09-11 06:20:00,
2013-09-11 02:25:00,69.8,67.1,30.14,South,180,0.0,0.0,91,0.00,,,0.00,Wunderground v.1.15,2013-09-11 06:25:00,
2013-09-11 02:30:00,69.7,67.0,30.14,South,180,0.0,0.0,91,0.00,,,0.00,Wunderground v.1.15,2013-09-11 06:30:00,
2013-09-11 02:35:00,69.7,67.0,30.13,South,180,0.0,0.0,91,0.00,,,0.00,Wunderground v.1.15,2013-09-11 06:35:00,
2013-09-11 02:40:00,69.5,66.8,30.13,South,180,0.0,0.0,91,0.00,,,0.00,Wunderground v.1.15,2013-09-11 06:40:00,
2013-09-11 02:45:00,69.4,66.7,30.13,South,180,0.0,0.0,91,0.00,,,0.00,Wunderground v.1.15,2013-09-11 06:45:00,
2013-09-11 02:50:00,69.3,66.6,30.13,South,180,0.0,0.0,91,0.00,,,0.00,Wunderground v.1.15,2013-09-11 06:50:00,
2013-09-11 02:55:00,69.0,66.3,30.13,South,180,0.0,0.0,91,0.00,,,0.00,Wunderground v.1.15,2013-09-11 06:55:00,
2013-09-11 03:00:00,68.8,66.1,30.13,South,180,0.0,0.0,91,0.00,,,0.00,Wunderground v.1.15,2013-09-11 07:00:00,
2013-09-11 03:05:00,68.6,66.2,30.13,South,180,0.0,0.0,92,0.00,,,0.00,Wunderground v.1.15,2013-09-11 07:05:00,
2013-09-11 03:10:00,68.5,66.1,30.13,South,180,0.0,0.0,92,0.00,,,0.00,Wunderground v.1.15,2013-09-11 07:10:00,
2013-09-11 03:15:00,68.4,66.0,30.13,South,180,0.0,0.0,92,0.00,,,0.00,Wunderground v.1.15,2013-09-11 07:15:00,
2013-09-11 03:20:00,68.3,65.9,30.13,South,180,0.0,0.0,92,0.00,,,0.00,Wunderground v.1.15,2013-09-11 07:20:00,
2013-09-11 03:25:00,68.1,65.7,30.13,South,180,0.0,0.0,92,0.00,,,0.00,Wunderground v.1.15,2013-09-11 07:25:00,
2013-09-11 03:30:00,68.1,66.0,30.13,South,180,0.0,0.0,93,0.00,,,0.00,Wunderground v.1.15,2013-09-11 07:30:00,
2013-09-11 03:35:00,68.0,65.9,30.13,South,180,0.0,0.0,93,0.00,,,0.00,Wunderground v.1.15,2013-09-11 07:35:00,
2013-09-11 03:40:00,67.9,65.8,30.13,South,180,0.0,0.0,93,0.00,,,0.00,Wunderground v.1.15,2013-09-11 07:40:00,
2013-09-11 03:45:00,67.9,65.8,30.13,South,180,0.0,0.0,93,0.00,,,0.00,Wunderground v.1.15,2013-09-11 07:45:00,
2013-09-11 03:50:00,67.8,65.7,30.13,South,180,0.0,0.0,93,0.00,,,0.00,Wunderground v.1.15,2013-09-11 07:50:00,
2013-09-11 03:56:00,67.8,65.7,30.13,South,180,0.0,0.0,93,0.00,,,0.00,Wunderground v.1.15,2013-09-11 07:56:00,
2013-09-11 04:01:00,67.7,65.6,30.13,South,180,0.0,0.0,93,0.00,,,0.00,Wunderground v.1.15,2013-09-11 08:01:00,
2013-09-11 04:06:00,67.6,65.5,30.13,South,180,0.0,0.0,93,0.00,,,0.00,Wunderground v.1.15,2013-09-11 08:06:00,
2013-09-11 04:11:00,67.6,65.5,30.13,South,180,0.0,0.0,93,0.00,,,0.00,Wunderground v.1.15,2013-09-11 08:11:00,
2013-09-11 04:16:00,67.6,65.2,30.14,South,180,0.0,0.0,92,0.00,,,0.00,Wunderground v.1.15,2013-09-11 08:16:00,
2013-09-11 04:21:00,67.4,65.0,30.13,South,180,0.0,0.0,92,0.00,,,0.00,Wunderground v.1.15,2013-09-11 08:21:00,
2013-09-11 04:26:00,67.1,64.7,30.13,South,180,0.0,0.0,92,0.00,,,0.00,Wunderground v.1.15,2013-09-11 08:26:00,
2013-09-11 04:31:00,66.9,64.8,30.13,South,180,0.0,0.0,93,0.00,,,0.00,Wunderground v.1.15,2013-09-11 08:31:00,
2013-09-11 04:36:00,66.9,64.8,30.13,South,180,0.0,0.0,93,0.00,,,0.00,Wunderground v.1.15,2013-09-11 08:36:00,
2013-09-11 04:41:00,66.9,65.1,30.13,South,180,0.0,0.0,94,0.00,,,0.00,Wunderground v.1.15,2013-09-11 08:41:00,
2013-09-11 04:46:00,66.9,65.1,30.13,South,180,0.0,0.0,94,0.00,,,0.00,Wunderground v.1.15,2013-09-11 08:46:00,
2013-09-11 04:51:00,66.9,65.1,30.14,South,180,0.0,0.0,94,0.00,,,0.00,Wunderground v.1.15,2013-09-11 08:51:00,
2013-09-11 04:56:00,66.9,64.8,30.13,South,180,0.0,0.0,93,0.00,,,0.00,Wunderground v.1.15,2013-09-11 08:56:00,
2013-09-11 05:01:00,66.8,64.7,30.13,South,180,0.0,0.0,93,0.00,,,0.00,Wunderground v.1.15,2013-09-11 09:01:00,
2013-09-11 05:06:00,66.7,64.9,30.13,South,180,0.0,0.0,94,0.00,,,0.00,Wunderground v.1.15,2013-09-11 09:06:00,
2013-09-11 05:11:00,66.7,64.9,30.14,South,180,0.0,0.0,94,0.00,,,0.00,Wunderground v.1.15,2013-09-11 09:11:00,
2013-09-11 05:16:00,66.6,64.8,30.14,South,180,0.0,0.0,94,0.00,,,0.00,Wunderground v.1.15,2013-09-11 09:16:00,
2013-09-11 05:21:00,66.5,64.7,30.14,South,180,0.0,0.0,94,0.00,,,0.00,Wunderground v.1.15,2013-09-11 09:21:00,
2013-09-11 05:26:00,66.4,64.6,30.14,South,180,0.0,0.0,94,0.00,,,0.00,Wunderground v.1.15,2013-09-11 09:26:00,
2013-09-11 05:31:00,66.3,64.5,30.14,South,180,0.0,0.0,94,0.00,,,0.00,Wunderground v.1.15,2013-09-11 09:31:00,
2013-09-11 05:36:00,66.2,64.4,30.14,South,180,0.0,0.0,94,0.00,,,0.00,Wunderground v.1.15,2013-09-11 09:36:00,
2013-09-11 05:41:00,66.1,64.3,30.14,South,180,0.0,0.0,94,0.00,,,0.00,Wunderground v.1.15,2013-09-11 09:41:00,
2013-09-11 05:46:00,65.8,63.7,30.14,South,180,0.0,0.0,93,0.00,,,0.00,Wunderground v.1.15,2013-09-11 09:46:00,
2013-09-11 05:51:00,65.7,63.6,30.14,South,180,0.0,0.0,93,0.00,,,0.00,Wunderground v.1.15,2013-09-11 09:51:00,
2013-09-11 05:56:00,65.5,63.4,30.14,South,180,0.0,0.0,93,0.00,,,0.00,Wunderground v.1.15,2013-09-11 09:56:00,
2013-09-11 06:01:00,65.4,63.6,30.15,South,180,0.0,0.0,94,0.00,,,0.00,Wunderground v.1.15,2013-09-11 10:01:00,
2013-09-11 06:07:00,65.4,63.6,30.15,South,180,0.0,0.0,94,0.00,,,0.00,Wunderground v.1.15,2013-09-11 10:07:00,
2013-09-11 06:12:00,65.4,63.3,30.15,South,180,0.0,0.0,93,0.00,,,0.00,Wunderground v.1.15,2013-09-11 10:12:00,
2013-09-11 06:17:00,65.3,63.2,30.14,South,180,0.0,0.0,93,0.00,,,0.00,Wunderground v.1.15,2013-09-11 10:17:00,
2013-09-11 06:22:00,65.3,63.2,30.15,South,180,0.0,0.0,93,0.00,,,0.00,Wunderground v.1.15,2013-09-11 10:22:00,
2013-09-11 06:27:00,65.3,63.5,30.14,South,180,0.0,0.0,94,0.00,,,0.00,Wunderground v.1.15,2013-09-11 10:27:00,
2013-09-11 06:32:00,65.4,63.6,30.15,South,180,0.0,0.0,94,0.00,,,0.00,Wunderground v.1.15,2013-09-11 10:32:00,
2013-09-11 06:37:00,65.4,63.3,30.15,South,180,0.0,0.0,93,0.00,,,0.00,Wunderground v.1.15,2013-09-11 10:37:00,
2013-09-11 06:42:00,65.4,63.3,30.15,South,180,0.0,0.0,93,0.00,,,0.00,Wunderground v.1.15,2013-09-11 10:42:00,
2013-09-11 06:47:00,65.4,63.6,30.15,South,180,0.0,0.0,94,0.00,,,0.00,Wunderground v.1.15,2013-09-11 10:47:00,
2013-09-11 06:52:00,65.5,63.7,30.15,South,180,0.0,0.0,94,0.00,,,0.00,Wunderground v.1.15,2013-09-11 10:52:00,
2013-09-11 06:57:00,65.2,63.1,30.16,South,180,0.0,0.0,93,0.00,,,0.00,Wunderground v.1.15,2013-09-11 10:57:00,
2013-09-11 07:02:00,64.9,62.8,30.16,South,180,0.0,0.0,93,0.00,,,0.00,Wunderground v.1.15,2013-09-11 11:02:00,
2013-09-11 07:07:00,64.6,62.5,30.16,SSW,213,0.0,0.0,93,0.00,,,0.00,Wunderground v.1.15,2013-09-11 11:07:00,
2013-09-11 07:12:00,64.5,62.7,30.16,SE,128,0.0,0.0,94,0.00,,,0.00,Wunderground v.1.15,2013-09-11 11:12:00,
2013-09-11 07:17:00,64.5,63.0,30.17,West,277,0.0,0.0,95,0.00,,,0.00,Wunderground v.1.15,2013-09-11 11:17:00,
2013-09-11 07:22:00,64.5,63.0,30.17,West,277,0.0,0.0,95,0.00,,,0.00,Wunderground v.1.15,2013-09-11 11:22:00,
2013-09-11 07:27:00,64.5,63.0,30.17,West,277,0.0,0.0,95,0.00,,,0.00,Wunderground v.1.15,2013-09-11 11:27:00,
2013-09-11 07:33:00,64.6,62.8,30.17,NNE,26,0.0,0.0,94,0.00,,,0.00,Wunderground v.1.15,2013-09-11 11:33:00,
2013-09-11 07:38:00,64.5,62.4,30.16,NNE,26,0.0,0.0,93,0.00,,,0.00,Wunderground v.1.15,2013-09-11 11:38:00,
2013-09-11 07:43:00,64.6,62.8,30.16,NNE,26,0.0,0.0,94,0.00,,,0.00,Wunderground v.1.15,2013-09-11 11:43:00,
2013-09-11 07:48:00,64.8,63.3,30.17,NNE,26,0.0,0.0,95,0.00,,,0.00,Wunderground v.1.15,2013-09-11 11:48:00,
2013-09-11 07:53:00,65.1,63.6,30.17,NNE,26,0.0,0.0,95,0.00,,,0.00,Wunderground v.1.15,2013-09-11 11:53:00,
2013-09-11 07:58:00,65.3,63.8,30.17,NNE,26,0.0,0.0,95,0.00,,,0.00,Wunderground v.1.15,2013-09-11 11:58:00,
2013-09-11 08:03:00,65.4,63.9,30.17,NW,313,0.0,0.0,95,0.00,,,0.00,Wunderground v.1.15,2013-09-11 12:03:00,
2013-09-11 08:08:00,65.5,64.0,30.17,NNW,336,0.0,0.0,95,0.00,,,0.00,Wunderground v.1.15,2013-09-11 12:08:00,
2013-09-11 08:13:00,65.7,64.5,30.17,ESE,109,0.0,0.0,96,0.00,,,0.00,Wunderground v.1.15,2013-09-11 12:13:00,
2013-09-11 08:18:00,65.9,64.7,30.17,ESE,109,0.0,0.0,96,0.00,,,0.00,Wunderground v.1.15,2013-09-11 12:18:00,
2013-09-11 08:23:00,66.1,64.9,30.17,ESE,109,0.0,0.0,96,0.00,,,0.00,Wunderground v.1.15,2013-09-11 12:23:00,
2013-09-11 08:28:00,66.2,65.0,30.17,ESE,109,0.0,0.0,96,0.00,,,0.00,Wunderground v.1.15,2013-09-11 12:28:00,
2013-09-11 08:33:00,66.4,65.5,30.17,ESE,109,0.0,0.0,97,0.00,,,0.00,Wunderground v.1.15,2013-09-11 12:33:00,
2013-09-11 08:38:00,66.7,65.8,30.17,ESE,109,0.0,0.0,97,0.00,,,0.00,Wunderground v.1.15,2013-09-11 12:38:00,
2013-09-11 08:43:00,67.2,66.3,30.18,ESE,109,0.0,0.0,97,0.00,,,0.00,Wunderground v.1.15,2013-09-11 12:43:00,
2013-09-11 08:48:00,67.7,66.8,30.18,ESE,105,0.0,0.0,97,0.00,,,0.00,Wunderground v.1.15,2013-09-11 12:48:00,
2013-09-11 08:53:00,68.0,67.1,30.18,SE,138,0.0,0.0,97,0.00,,,0.00,Wunderground v.1.15,2013-09-11 12:53:00,
2013-09-11 08:58:00,68.5,67.6,30.18,North,360,0.0,0.0,97,0.00,,,0.00,Wunderground v.1.15,2013-09-11 12:58:00,
2013-09-11 09:03:00,69.0,68.1,30.17,North,360,0.0,0.0,97,0.00,,,0.00,Wunderground v.1.15,2013-09-11 13:03:00,
2013-09-11 09:08:00,69.6,68.7,30.18,North,360,0.0,0.0,97,0.00,,,0.00,Wunderground v.1.15,2013-09-11 13:08:00,
2013-09-11 09:13:00,70.2,69.3,30.18,North,5,0.0,2.0,97,0.00,,,0.00,Wunderground v.1.15,2013-09-11 13:13:00,
2013-09-11 09:18:00,70.7,69.5,30.18,North,5,0.0,0.0,96,0.00,,,0.00,Wunderground v.1.15,2013-09-11 13:18:00,
2013-09-11 09:23:00,71.1,69.9,30.18,NNE,20,0.0,0.0,96,0.00,,,0.00,Wunderground v.1.15,2013-09-11 13:23:00,
2013-09-11 09:28:00,71.5,70.0,30.18,NE,46,2.0,4.0,95,0.00,,,0.00,Wunderground v.1.15,2013-09-11 13:28:00,
2013-09-11 09:33:00,72.1,70.3,30.18,ESE,113,0.0,5.0,94,0.00,,,0.00,Wunderground v.1.15,2013-09-11 13:33:00,
2013-09-11 09:38:00,72.8,70.7,30.18,East,82,0.0,2.0,93,0.00,,,0.00,Wunderground v.1.15,2013-09-11 13:38:00,
2013-09-11 09:43:00,73.4,70.9,30.18,East,82,0.0,2.0,92,0.00,,,0.00,Wunderground v.1.15,2013-09-11 13:43:00,
2013-09-11 09:48:00,74.0,70.9,30.18,ESE,106,0.0,0.0,90,0.00,,,0.00,Wunderground v.1.15,2013-09-11 13:48:00,
2013-09-11 09:53:00,74.5,71.4,30.18,NNE,17,0.0,3.0,90,0.00,,,0.00,Wunderground v.1.15,2013-09-11 13:53:00,
2013-09-11 09:58:00,75.1,71.6,30.18,NNE,28,0.0,0.0,89,0.00,,,0.00,Wunderground v.1.15,2013-09-11 13:58:00,
2013-09-11 10:03:00,75.7,71.6,30.18,NNE,30,0.0,0.0,87,0.00,,,0.00,Wunderground v.1.15,2013-09-11 14:03:00,
2013-09-11 10:08:00,76.4,71.9,30.18,ENE,57,0.0,0.0,86,0.00,,,0.00,Wunderground v.1.15,2013-09-11 14:08:00,
2013-09-11 10:13:00,76.9,72.0,30.18,ENE,60,0.0,0.0,85,0.00,,,0.00,Wunderground v.1.15,2013-09-11 14:13:00,
2013-09-11 10:19:00,77.5,72.6,30.17,ENE,60,0.0,0.0,85,0.00,,,0.00,Wunderground v.1.15,2013-09-11 14:19:00,
2013-09-11 10:24:00,78.2,72.3,30.17,ENE,59,0.0,0.0,82,0.00,,,0.00,Wunderground v.1.15,2013-09-11 14:24:00,
2013-09-11 10:29:00,78.7,72.0,30.17,NE,45,0.0,0.0,80,0.00,,,0.00,Wunderground v.1.15,2013-09-11 14:29:00,
2013-09-11 10:34:00,79.0,71.9,30.17,NE,51,1.0,5.0,79,0.00,,,0.00,Wunderground v.1.15,2013-09-11 14:34:00,
2013-09-11 10:39:00,79.4,71.9,30.17,NE,47,2.0,3.0,78,0.00,,,0.00,Wunderground v.1.15,2013-09-11 14:39:00,
2013-09-11 10:44:00,79.8,71.9,30.17,NNE,27,5.0,5.0,77,0.00,,,0.00,Wunderground v.1.15,2013-09-11 14:44:00,
2013-09-11 10:49:00,80.0,71.8,30.17,NNE,28,0.0,3.0,76,0.00,,,0.00,Wunderground v.1.15,2013-09-11 14:49:00,
2013-09-11 10:54:00,80.4,72.1,30.18,NE,35,0.0,3.0,76,0.00,,,0.00,Wunderground v.1.15,2013-09-11 14:54:00,
2013-09-11 11:00:00,80.7,72.4,30.17,NE,46,3.0,5.0,76,0.00,,,0.00,Wunderground v.1.15,2013-09-11 15:00:00,
2013-09-11 11:05:00,80.8,72.1,30.17,East,96,0.0,5.0,75,0.00,,,0.00,Wunderground v.1.15,2013-09-11 15:05:00,
2013-09-11 11:09:00,81.2,72.5,30.17,NE,48,1.0,5.0,75,0.00,,,0.00,Wunderground v.1.15,2013-09-11 15:09:00,
2013-09-11 11:14:00,81.5,72.8,30.17,NE,49,0.0,5.0,75,0.00,,,0.00,Wunderground v.1.15,2013-09-11 15:14:00,
2013-09-11 11:20:00,81.7,72.2,30.17,ENE,59,0.0,5.0,73,0.00,,,0.00,Wunderground v.1.15,2013-09-11 15:20:00,
2013-09-11 11:25:00,82.1,71.8,30.17,NE,36,3.0,5.0,71,0.00,,,0.00,Wunderground v.1.15,2013-09-11 15:25:00,
2013-09-11 11:30:00,82.4,71.2,30.17,ENE,59,0.0,6.0,69,0.00,,,0.00,Wunderground v.1.15,2013-09-11 15:30:00,
2013-09-11 11:35:00,82.4,70.8,30.17,NNE,26,2.0,6.0,68,0.00,,,0.00,Wunderground v.1.15,2013-09-11 15:35:00,
2013-09-11 11:40:00,82.6,71.8,30.17,ENE,75,0.0,4.0,70,0.00,,,0.00,Wunderground v.1.15,2013-09-11 15:40:00,
2013-09-11 11:45:00,83.3,70.8,30.17,ESE,107,0.0,4.0,66,0.00,,,0.00,Wunderground v.1.15,2013-09-11 15:45:00,
2013-09-11 11:50:00,84.1,71.1,30.17,NE,53,0.0,2.0,65,0.00,,,0.00,Wunderground v.1.15,2013-09-11 15:50:00,
2013-09-11 11:55:00,84.8,71.3,30.17,NE,34,0.0,2.0,64,0.00,,,0.00,Wunderground v.1.15,2013-09-11 15:55:00,
2013-09-11 12:00:00,85.3,69.8,30.16,ENE,66,0.0,1.0,60,0.00,,,0.00,Wunderground v.1.15,2013-09-11 16:00:00,
2013-09-11 12:05:00,85.8,69.8,30.16,ENE,67,0.0,1.0,59,0.00,,,0.00,Wunderground v.1.15,2013-09-11 16:05:00,
2013-09-11 12:10:00,85.9,69.9,30.16,ENE,68,0.0,0.0,59,0.00,,,0.00,Wunderground v.1.15,2013-09-11 16:10:00,
2013-09-11 12:15:00,86.0,69.5,30.16,SSW,209,0.0,0.0,58,0.00,,,0.00,Wunderground v.1.15,2013-09-11 16:15:00,
2013-09-11 12:20:00,86.2,69.7,30.16,NNE,13,0.0,0.0,58,0.00,,,0.00,Wunderground v.1.15,2013-09-11 16:20:00,
2013-09-11 12:25:00,86.6,70.1,30.15,NE,42,1.0,4.0,58,0.00,,,0.00,Wunderground v.1.15,2013-09-11 16:25:00,
2013-09-11 12:30:00,86.7,69.1,30.15,ENE,76,0.0,4.0,56,0.00,,,0.00,Wunderground v.1.15,2013-09-11 16:30:00,
2013-09-11 12:35:00,86.5,68.9,30.15,ENE,76,2.0,4.0,56,0.00,,,0.00,Wunderground v.1.15,2013-09-11 16:35:00,
2013-09-11 12:40:00,86.7,68.6,30.15,East,88,0.0,4.0,55,0.00,,,0.00,Wunderground v.1.15,2013-09-11 16:40:00,
2013-09-11 12:45:00,87.3,67.5,30.15,South,180,5.0,8.0,52,0.00,,,0.00,Wunderground v.1.15,2013-09-11 16:45:00,
2013-09-11 12:50:00,87.2,66.9,30.15,ENE,78,0.0,6.0,51,0.00,,,0.00,Wunderground v.1.15,2013-09-11 16:50:00,
2013-09-11 12:55:00,87.3,68.1,30.15,ESE,121,0.0,6.0,53,0.00,,,0.00,Wunderground v.1.15,2013-09-11 16:55:00,
2013-09-11 13:00:00,87.8,66.8,30.15,South,184,5.0,8.0,50,0.00,,,0.00,Wunderground v.1.15,2013-09-11 17:00:00,
2013-09-11 13:05:00,88.0,67.0,30.15,South,191,0.0,8.0,50,0.00,,,0.00,Wunderground v.1.15,2013-09-11 17:05:00,
2013-09-11 13:10:00,88.1,65.9,30.15,SSW,196,0.0,5.0,48,0.00,,,0.00,Wunderground v.1.15,2013-09-11 17:10:00,
2013-09-11 13:15:00,88.0,64.6,30.14,SSW,206,1.0,5.0,46,0.00,,,0.00,Wunderground v.1.15,2013-09-11 17:15:00,
2013-09-11 13:20:00,88.0,66.4,30.14,South,178,0.0,4.0,49,0.00,,,0.00,Wunderground v.1.15,2013-09-11 17:20:00,
2013-09-11 13:25:00,88.4,68.0,30.14,South,173,0.0,4.0,51,0.00,,,0.00,Wunderground v.1.15,2013-09-11 17:25:00,
2013-09-11 13:30:00,88.6,67.6,30.14,ENE,68,2.0,7.0,50,0.00,,,0.00,Wunderground v.1.15,2013-09-11 17:30:00,
2013-09-11 13:35:00,88.4,67.4,30.14,SE,142,0.0,7.0,50,0.00,,,0.00,Wunderground v.1.15,2013-09-11 17:35:00,
2013-09-11 13:40:00,88.5,66.9,30.14,SSE,155,1.0,4.0,49,0.00,,,0.00,Wunderground v.1.15,2013-09-11 17:40:00,
2013-09-11 13:45:00,88.5,67.5,30.13,South,171,0.0,5.0,50,0.00,,,0.00,Wunderground v.1.15,2013-09-11 17:45:00,
2013-09-11 13:50:00,88.6,66.4,30.13,South,182,4.0,7.0,48,0.00,,,0.00,Wunderground v.1.15,2013-09-11 17:50:00,
2013-09-11 13:55:00,89.0,66.8,30.13,South,184,0.0,7.0,48,0.00,,,0.00,Wunderground v.1.15,2013-09-11 17:55:00,
2013-09-11 14:00:00,89.5,66.0,30.12,ESE,118,0.0,4.0,46,0.00,,,0.00,Wunderground v.1.15,2013-09-11 18:00:00,
2013-09-11 14:05:00,89.6,65.4,30.12,South,184,0.0,7.0,45,0.00,,,0.00,Wunderground v.1.15,2013-09-11 18:05:00,
2013-09-11 14:10:00,89.1,65.0,30.12,South,187,0.0,1.0,45,0.00,,,0.00,Wunderground v.1.15,2013-09-11 18:10:00,
2013-09-11 14:15:00,88.8,65.4,30.11,SSW,213,4.0,7.0,46,0.00,,,0.00,Wunderground v.1.15,2013-09-11 18:15:00,
2013-09-11 14:20:00,89.2,62.4,30.12,SSW,196,0.0,7.0,41,0.00,,,0.00,Wunderground v.1.15,2013-09-11 18:20:00,
2013-09-11 14:25:00,89.9,63.7,30.12,ENE,74,0.0,7.0,42,0.00,,,0.00,Wunderground v.1.15,2013-09-11 18:25:00,
2013-09-11 14:30:00,90.1,63.2,30.11,SSW,202,1.0,6.0,41,0.00,,,0.00,Wunderground v.1.15,2013-09-11 18:30:00,
2013-09-11 14:35:00,90.4,62.1,30.10,South,175,0.0,11.0,39,0.00,,,0.00,Wunderground v.1.15,2013-09-11 18:35:00,
2013-09-11 14:40:00,90.8,63.9,30.10,SSW,196,7.0,9.0,41,0.00,,,0.00,Wunderground v.1.15,2013-09-11 18:40:00,
2013-09-11 14:45:00,90.6,63.7,30.10,SSW,192,0.0,9.0,41,0.00,,,0.00,Wunderground v.1.15,2013-09-11 18:45:00,
2013-09-11 14:50:00,90.7,65.1,30.10,SSW,196,10.0,10.0,43,0.00,,,0.00,Wunderground v.1.15,2013-09-11 18:50:00,
2013-09-11 14:55:00,89.9,63.7,30.10,SW,228,13.0,13.0,42,0.00,,,0.00,Wunderground v.1.15,2013-09-11 18:55:00,
2013-09-11 15:00:00,89.9,64.4,30.09,South,177,5.0,11.0,43,0.00,,,0.00,Wunderground v.1.15,2013-09-11 19:00:00,
2013-09-11 15:06:00,89.8,65.0,30.09,SSW,200,4.0,5.0,44,0.00,,,0.00,Wunderground v.1.15,2013-09-11 19:06:00,
2013-09-11 15:11:00,90.1,65.2,30.09,South,178,1.0,6.0,44,0.00,,,0.00,Wunderground v.1.15,2013-09-11 19:11:00,
2013-09-11 15:16:00,90.5,64.9,30.09,South,175,0.0,4.0,43,0.00,,,0.00,Wunderground v.1.15,2013-09-11 19:16:00,
2013-09-11 15:21:00,90.5,64.9,30.09,WSW,240,5.0,8.0,43,0.00,,,0.00,Wunderground v.1.15,2013-09-11 19:21:00,
2013-09-11 15:26:00,90.0,65.2,30.09,South,181,2.0,5.0,44,0.00,,,0.00,Wunderground v.1.15,2013-09-11 19:26:00,
2013-09-11 15:31:00,90.1,65.2,30.09,SSE,158,5.0,6.0,44,0.00,,,0.00,Wunderground v.1.15,2013-09-11 19:31:00,
2013-09-11 15:36:00,90.5,65.6,30.09,SW,233,10.0,10.0,44,0.00,,,0.00,Wunderground v.1.15,2013-09-11 19:36:00,
2013-09-11 15:41:00,90.6,66.3,30.08,South,179,6.0,10.0,45,0.00,,,0.00,Wunderground v.1.15,2013-09-11 19:41:00,
2013-09-11 15:46:00,90.6,65.7,30.08,South,187,5.0,5.0,44,0.00,,,0.00,Wunderground v.1.15,2013-09-11 19:46:00,
2013-09-11 15:51:00,90.7,65.1,30.08,South,190,7.0,11.0,43,0.00,,,0.00,Wunderground v.1.15,2013-09-11 19:51:00,
2013-09-11 15:56:00,90.6,65.0,30.08,South,175,6.0,6.0,43,0.00,,,0.00,Wunderground v.1.15,2013-09-11 19:56:00,
2013-09-11 16:01:00,90.4,64.9,30.08,South,186,5.0,10.0,43,0.00,,,0.00,Wunderground v.1.15,2013-09-11 20:01:00,
2013-09-11 16:06:00,90.6,65.0,30.08,South,190,4.0,5.0,43,0.00,,,0.00,Wunderground v.1.15,2013-09-11 20:06:00,
2013-09-11 16:11:00,90.5,64.3,30.08,SW,219,3.0,8.0,42,0.00,,,0.00,Wunderground v.1.15,2013-09-11 20:11:00,
2013-09-11 16:16:00,90.4,66.2,30.08,South,178,0.0,4.0,45,0.00,,,0.00,Wunderground v.1.15,2013-09-11 20:16:00,
2013-09-11 16:21:00,90.7,65.8,30.08,East,83,5.0,5.0,44,0.00,,,0.00,Wunderground v.1.15,2013-09-11 20:21:00,
2013-09-11 16:26:00,91.1,64.8,30.07,SSE,165,0.0,1.0,42,0.00,,,0.00,Wunderground v.1.15,2013-09-11 20:26:00,
2013-09-11 16:30:00,78.6,62.1,29.97,ENE,69,3.0,4.0,57,0.00,,,0.00,Wunderground v.1.15,2013-09-11 20:30:00,
2013-09-11 16:31:00,91.4,65.1,30.08,SSE,163,1.0,1.0,42,0.00,,,0.00,Wunderground v.1.15,2013-09-11 20:31:00,
2013-09-11 16:32:00,78.6,62.6,29.97,ENE,69,2.0,4.0,58,0.00,,,0.00,Wunderground v.1.15,2013-09-11 20:32:00,
2013-09-11 16:33:00,78.6,62.1,29.98,ENE,65,4.0,5.0,57,0.00,,,0.00,Wunderground v.1.15,2013-09-11 20:33:00,
2013-09-11 16:34:00,78.5,62.0,29.97,ENE,64,2.0,5.0,57,0.00,,,0.00,Wunderground v.1.15,2013-09-11 20:34:00,
2013-09-11 16:35:00,78.5,62.0,29.97,NE,54,4.0,5.0,57,0.00,,,0.00,Wunderground v.1.15,2013-09-11 20:35:00,
2013-09-11 16:36:00,91.4,65.1,30.07,South,182,3.0,3.0,42,0.00,,,0.00,Wunderground v.1.15,2013-09-11 20:36:00,
2013-09-11 16:37:00,78.4,62.4,29.97,NE,53,1.0,5.0,58,0.00,,,0.00,Wunderground v.1.15,2013-09-11 20:37:00,
2013-09-11 16:38:00,78.4,62.4,29.97,NE,53,2.0,5.0,58,0.00,,,0.00,Wunderground v.1.15,2013-09-11 20:38:00,
2013-09-11 16:39:00,78.4,61.9,29.97,NE,53,2.0,5.0,57,0.00,,,0.00,Wunderground v.1.15,2013-09-11 20:39:00,
2013-09-11 16:41:00,91.5,65.8,30.07,South,182,0.0,4.0,43,0.00,,,0.00,Wunderground v.1.15,2013-09-11 20:41:00,
2013-09-11 16:46:00,91.5,65.2,30.07,East,83,0.0,1.0,42,0.00,,,0.00,Wunderground v.1.15,2013-09-11 20:46:00,
2013-09-11 16:51:00,91.3,64.3,30.07,South,179,2.0,6.0,41,0.00,,,0.00,Wunderground v.1.15,2013-09-11 20:51:00,
2013-09-11 16:56:00,90.9,64.6,30.07,South,176,2.0,4.0,42,0.00,,,0.00,Wunderground v.1.15,2013-09-11 20:56:00,
2013-09-11 17:01:00,90.8,63.9,30.07,South,190,4.0,6.0,41,0.00,,,0.00,Wunderground v.1.15,2013-09-11 21:01:00,
2013-09-11 17:06:00,90.6,64.4,30.07,SSW,196,5.0,5.0,42,0.00,,,0.00,Wunderground v.1.15,2013-09-11 21:06:00,
2013-09-11 17:11:00,90.3,64.1,30.06,SSW,193,0.0,5.0,42,0.00,,,0.00,Wunderground v.1.15,2013-09-11 21:11:00,
2013-09-11 17:16:00,90.5,64.3,30.06,South,186,0.0,1.0,42,0.00,,,0.00,Wunderground v.1.15,2013-09-11 21:16:00,
2013-09-11 17:21:00,90.5,64.3,30.06,South,183,5.0,7.0,42,0.00,,,0.00,Wunderground v.1.15,2013-09-11 21:21:00,
2013-09-11 17:26:00,90.3,65.4,30.06,SSW,197,0.0,3.0,44,0.00,,,0.00,Wunderground v.1.15,2013-09-11 21:26:00,
2013-09-11 17:31:00,90.3,64.8,30.06,SSE,165,0.0,5.0,43,0.00,,,0.00,Wunderground v.1.15,2013-09-11 21:31:00,
2013-09-11 17:36:00,90.2,64.7,30.06,SSW,194,2.0,2.0,43,0.00,,,0.00,Wunderground v.1.15,2013-09-11 21:36:00,
2013-09-11 17:41:00,90.1,64.6,30.07,South,173,5.0,7.0,43,0.00,,,0.00,Wunderground v.1.15,2013-09-11 21:41:00,
2013-09-11 17:46:00,90.0,64.5,30.06,South,176,2.0,4.0,43,0.00,,,0.00,Wunderground v.1.15,2013-09-11 21:46:00,
2013-09-11 17:51:00,89.6,64.1,30.06,South,178,0.0,5.0,43,0.00,,,0.00,Wunderground v.1.15,2013-09-11 21:51:00,
2013-09-11 17:56:00,89.3,65.2,30.06,SSW,201,4.0,5.0,45,0.00,,,0.00,Wunderground v.1.15,2013-09-11 21:56:00,
2013-09-11 18:02:00,89.0,66.2,30.06,SSW,209,1.0,7.0,47,0.00,,,0.00,Wunderground v.1.15,2013-09-11 22:02:00,
2013-09-11 18:07:00,88.6,65.8,30.06,SSE,168,6.0,8.0,47,0.00,,,0.00,Wunderground v.1.15,2013-09-11 22:07:00,
2013-09-11 18:12:00,88.2,65.4,30.06,SSW,205,6.0,8.0,47,0.00,,,0.00,Wunderground v.1.15,2013-09-11 22:12:00,
2013-09-11 18:17:00,88.0,65.8,30.05,SSW,194,5.0,7.0,48,0.00,,,0.00,Wunderground v.1.15,2013-09-11 22:17:00,
2013-09-11 18:22:00,87.7,66.2,30.06,SSW,206,1.0,7.0,49,0.00,,,0.00,Wunderground v.1.15,2013-09-11 22:22:00,
2013-09-11 18:27:00,87.6,66.1,30.06,SSW,194,5.0,7.0,49,0.00,,,0.00,Wunderground v.1.15,2013-09-11 22:27:00,
2013-09-11 18:32:00,87.4,67.1,30.05,South,180,4.0,7.0,51,0.00,,,0.00,Wunderground v.1.15,2013-09-11 22:32:00,
2013-09-11 18:37:00,87.3,67.0,30.06,South,169,2.0,5.0,51,0.00,,,0.00,Wunderground v.1.15,2013-09-11 22:37:00,
2013-09-11 18:42:00,87.3,67.0,30.05,South,171,2.0,5.0,51,0.00,,,0.00,Wunderground v.1.15,2013-09-11 22:42:00,
2013-09-11 18:47:00,87.0,67.2,30.05,South,182,2.0,5.0,52,0.00,,,0.00,Wunderground v.1.15,2013-09-11 22:47:00,
2013-09-11 18:52:00,86.6,66.9,30.05,South,182,0.0,5.0,52,0.00,,,0.00,Wunderground v.1.15,2013-09-11 22:52:00,
2013-09-11 18:57:00,86.3,67.2,30.05,South,182,0.0,1.0,53,0.00,,,0.00,Wunderground v.1.15,2013-09-11 22:57:00,
2013-09-11 19:02:00,86.1,67.0,30.05,South,182,0.0,1.0,53,0.00,,,0.00,Wunderground v.1.15,2013-09-11 23:02:00,
2013-09-11 19:07:00,85.8,66.7,30.05,South,182,0.0,0.0,53,0.00,,,0.00,Wunderground v.1.15,2013-09-11 23:07:00,
2013-09-11 19:12:00,85.6,67.6,30.05,South,182,0.0,0.0,55,0.00,,,0.00,Wunderground v.1.15,2013-09-11 23:12:00,
2013-09-11 19:17:00,85.2,68.8,30.05,South,182,0.0,0.0,58,0.00,,,0.00,Wunderground v.1.15,2013-09-11 23:17:00,
2013-09-11 19:22:00,84.5,68.6,30.05,South,182,0.0,0.0,59,0.00,,,0.00,Wunderground v.1.15,2013-09-11 23:22:00,
2013-09-11 19:27:00,84.0,68.6,30.06,South,182,0.0,0.0,60,0.00,,,0.00,Wunderground v.1.15,2013-09-11 23:27:00,
2013-09-11 19:32:00,83.5,68.6,30.05,South,182,0.0,0.0,61,0.00,,,0.00,Wunderground v.1.15,2013-09-11 23:32:00,
2013-09-11 19:37:00,83.2,69.3,30.05,South,182,0.0,0.0,63,0.00,,,0.00,Wunderground v.1.15,2013-09-11 23:37:00,
2013-09-11 19:42:00,82.6,69.6,30.06,South,182,0.0,0.0,65,0.00,,,0.00,Wunderground v.1.15,2013-09-11 23:42:00,
2013-09-11 19:47:00,81.8,69.8,30.06,South,182,0.0,0.0,67,0.00,,,0.00,Wunderground v.1.15,2013-09-11 23:47:00,
2013-09-11 19:52:00,81.1,69.5,30.06,South,182,0.0,0.0,68,0.00,,,0.00,Wunderground v.1.15,2013-09-11 23:52:00,
2013-09-11 19:57:00,80.7,69.2,30.06,South,182,0.0,0.0,68,0.00,,,0.00,Wunderground v.1.15,2013-09-11 23:57:00,
2013-09-11 20:02:00,80.3,69.2,30.06,South,182,0.0,0.0,69,0.00,,,0.00,Wunderground v.1.15,2013-09-12 00:02:00,
2013-09-11 20:07:00,79.8,69.6,30.06,South,182,0.0,0.0,71,0.00,,,0.00,Wunderground v.1.15,2013-09-12 00:07:00,
2013-09-11 20:12:00,79.4,69.6,30.06,South,182,0.0,0.0,72,0.00,,,0.00,Wunderground v.1.15,2013-09-12 00:12:00,
2013-09-11 20:17:00,78.9,69.5,30.06,South,182,0.0,0.0,73,0.00,,,0.00,Wunderground v.1.15,2013-09-12 00:17:00,
2013-09-11 20:22:00,78.4,69.4,30.06,South,182,0.0,0.0,74,0.00,,,0.00,Wunderground v.1.15,2013-09-12 00:22:00,
2013-09-11 20:27:00,77.8,69.2,30.06,South,182,0.0,0.0,75,0.00,,,0.00,Wunderground v.1.15,2013-09-12 00:27:00,
2013-09-11 20:32:00,77.3,69.1,30.06,South,182,0.0,0.0,76,0.00,,,0.00,Wunderground v.1.15,2013-09-12 00:32:00,
2013-09-11 20:38:00,77.0,68.9,30.06,South,182,0.0,0.0,76,0.00,,,0.00,Wunderground v.1.15,2013-09-12 00:38:00,
2013-09-11 20:43:00,76.7,68.9,30.07,South,182,0.0,0.0,77,0.00,,,0.00,Wunderground v.1.15,2013-09-12 00:43:00,
2013-09-11 20:48:00,76.3,68.9,30.07,South,182,0.0,0.0,78,0.00,,,0.00,Wunderground v.1.15,2013-09-12 00:48:00,
2013-09-11 20:53:00,76.0,68.6,30.07,South,182,0.0,0.0,78,0.00,,,0.00,Wunderground v.1.15,2013-09-12 00:53:00,
2013-09-11 20:58:00,75.7,68.7,30.07,South,182,0.0,0.0,79,0.00,,,0.00,Wunderground v.1.15,2013-09-12 00:58:00,
2013-09-11 21:03:00,75.4,68.8,30.07,South,182,0.0,0.0,80,0.00,,,0.00,Wunderground v.1.15,2013-09-12 01:03:00,
2013-09-11 21:07:00,75.0,68.8,30.07,South,182,0.0,0.0,81,0.00,,,0.00,Wunderground v.1.15,2013-09-12 01:07:00,
2013-09-11 21:12:00,74.5,69.0,30.07,South,182,0.0,0.0,83,0.00,,,0.00,Wunderground v.1.15,2013-09-12 01:12:00,
2013-09-11 21:17:00,74.2,68.7,30.07,South,182,0.0,0.0,83,0.00,,,0.00,Wunderground v.1.15,2013-09-12 01:17:00,
2013-09-11 21:23:00,74.0,68.5,30.07,South,182,0.0,0.0,83,0.00,,,0.00,Wunderground v.1.15,2013-09-12 01:23:00,
2013-09-11 21:28:00,73.9,68.8,30.07,South,182,0.0,0.0,84,0.00,,,0.00,Wunderground v.1.15,2013-09-12 01:28:00,
2013-09-11 21:33:00,73.8,68.7,30.07,South,182,0.0,0.0,84,0.00,,,0.00,Wunderground v.1.15,2013-09-12 01:33:00,
2013-09-11 21:38:00,73.7,68.9,30.07,South,182,0.0,0.0,85,0.00,,,0.00,Wunderground v.1.15,2013-09-12 01:38:00,
2013-09-11 21:40:00,66.4,62.1,30.01,NE,54,0.0,0.0,86,0.00,,,0.00,Wunderground v.1.15,2013-09-12 01:40:00,
2013-09-11 21:42:00,66.4,62.1,30.01,NE,54,0.0,0.0,86,0.00,,,0.00,Wunderground v.1.15,2013-09-12 01:42:00,
2013-09-11 21:43:00,73.6,68.8,30.07,South,182,0.0,0.0,85,0.00,,,0.00,Wunderground v.1.15,2013-09-12 01:43:00,
2013-09-11 21:44:00,66.3,62.0,30.02,NE,54,0.0,0.0,86,0.00,,,0.00,Wunderground v.1.15,2013-09-12 01:44:00,
2013-09-11 21:46:00,66.3,62.0,30.01,NE,54,0.0,0.0,86,0.00,,,0.00,Wunderground v.1.15,2013-09-12 01:46:00,
2013-09-11 21:47:00,66.2,61.9,30.01,NE,54,0.0,0.0,86,0.00,,,0.00,Wunderground v.1.15,2013-09-12 01:47:00,
2013-09-11 21:48:00,73.3,68.5,30.07,South,182,0.0,0.0,85,0.00,,,0.00,Wunderground v.1.15,2013-09-12 01:48:00,
2013-09-11 21:49:00,66.2,61.9,30.02,NE,54,0.0,0.0,86,0.00,,,0.00,Wunderground v.1.15,2013-09-12 01:49:00,
2013-09-11 21:50:00,66.2,61.9,30.01,NE,54,0.0,0.0,86,0.00,,,0.00,Wunderground v.1.15,2013-09-12 01:50:00,
2013-09-11 21:52:00,66.2,61.9,30.01,NE,54,0.0,0.0,86,0.00,,,0.00,Wunderground v.1.15,2013-09-12 01:52:00,
2013-09-11 21:53:00,73.1,68.7,30.07,South,182,0.0,0.0,86,0.00,,,0.00,Wunderground v.1.15,2013-09-12 01:53:00,
2013-09-11 21:58:00,73.0,68.2,30.07,South,182,0.0,0.0,85,0.00,,,0.00,Wunderground v.1.15,2013-09-12 01:58:00,
2013-09-11 22:03:00,72.8,68.0,30.07,South,182,0.0,0.0,85,0.00,,,0.00,Wunderground v.1.15,2013-09-12 02:03:00,
2013-09-11 22:08:00,72.6,68.2,30.07,South,182,0.0,0.0,86,0.00,,,0.00,Wunderground v.1.15,2013-09-12 02:08:00,
2013-09-11 22:13:00,72.5,68.4,30.07,South,182,0.0,0.0,87,0.00,,,0.00,Wunderground v.1.15,2013-09-12 02:13:00,
2013-09-11 22:18:00,72.5,68.4,30.07,South,182,0.0,0.0,87,0.00,,,0.00,Wunderground v.1.15,2013-09-12 02:18:00,
2013-09-11 22:23:00,72.3,67.9,30.07,South,182,0.0,0.0,86,0.00,,,0.00,Wunderground v.1.15,2013-09-12 02:23:00,
2013-09-11 22:28:00,72.1,68.0,30.07,South,182,0.0,0.0,87,0.00,,,0.00,Wunderground v.1.15,2013-09-12 02:28:00,
2013-09-11 22:34:00,72.1,68.3,30.07,South,182,0.0,0.0,88,0.00,,,0.00,Wunderground v.1.15,2013-09-12 02:34:00,
2013-09-11 22:39:00,72.0,68.2,30.07,South,182,0.0,0.0,88,0.00,,,0.00,Wunderground v.1.15,2013-09-12 02:39:00,
2013-09-11 22:44:00,72.0,67.9,30.07,South,182,0.0,0.0,87,0.00,,,0.00,Wunderground v.1.15,2013-09-12 02:44:00,
2013-09-11 22:49:00,72.0,67.9,30.07,South,182,0.0,0.0,87,0.00,,,0.00,Wunderground v.1.15,2013-09-12 02:49:00,
2013-09-11 22:54:00,71.9,67.8,30.07,South,182,0.0,0.0,87,0.00,,,0.00,Wunderground v.1.15,2013-09-12 02:54:00,
2013-09-11 22:59:00,71.7,67.6,30.07,South,182,0.0,0.0,87,0.00,,,0.00,Wunderground v.1.15,2013-09-12 02:59:00,
2013-09-11 23:04:00,71.4,67.3,30.07,South,182,0.0,0.0,87,0.00,,,0.00,Wunderground v.1.15,2013-09-12 03:04:00,
2013-09-11 23:09:00,71.3,67.2,30.06,South,182,0.0,0.0,87,0.00,,,0.00,Wunderground v.1.15,2013-09-12 03:09:00,
2013-09-11 23:14:00,71.1,67.0,30.06,South,182,0.0,0.0,87,0.00,,,0.00,Wunderground v.1.15,2013-09-12 03:14:00,
2013-09-11 23:19:00,70.9,67.2,30.06,South,182,0.0,0.0,88,0.00,,,0.00,Wunderground v.1.15,2013-09-12 03:19:00,
2013-09-11 23:24:00,70.7,67.0,30.06,South,182,0.0,0.0,88,0.00,,,0.00,Wunderground v.1.15,2013-09-12 03:24:00,
2013-09-11 23:29:00,70.7,67.0,30.06,South,182,0.0,0.0,88,0.00,,,0.00,Wunderground v.1.15,2013-09-12 03:29:00,
2013-09-11 23:34:00,70.7,67.0,30.06,South,182,0.0,0.0,88,0.00,,,0.00,Wunderground v.1.15,2013-09-12 03:34:00,
2013-09-11 23:39:00,70.6,67.2,30.06,South,182,0.0,0.0,89,0.00,,,0.00,Wunderground v.1.15,2013-09-12 03:39:00,
2013-09-11 23:44:00,70.6,67.2,30.06,South,182,0.0,0.0,89,0.00,,,0.00,Wunderground v.1.15,2013-09-12 03:44:00,
2013-09-11 23:45:00,67.6,61.9,30.04,NE,54,0.0,0.0,82,0.00,,,0.00,Wunderground v.1.15,2013-09-12 03:45:00,
2013-09-11 23:46:00,67.6,61.9,30.04,NE,54,0.0,0.0,82,0.00,,,0.00,Wunderground v.1.15,2013-09-12 03:46:00,
2013-09-11 23:47:00,67.6,61.9,30.04,NE,54,0.0,0.0,82,0.00,,,0.00,Wunderground v.1.15,2013-09-12 03:47:00,
2013-09-11 23:48:00,67.6,61.9,30.04,NE,54,0.0,0.0,82,0.00,,,0.00,Wunderground v.1.15,2013-09-12 03:48:00,
2013-09-11 23:49:00,70.6,67.2,30.06,South,176,7.0,8.0,89,0.00,,,0.00,Wunderground v.1.15,2013-09-12 03:49:00,
2013-09-11 23:50:00,67.7,62.0,30.04,NE,54,0.0,0.0,82,0.00,,,0.00,Wunderground v.1.15,2013-09-12 03:50:00,
2013-09-11 23:51:00,67.7,62.3,30.04,NE,54,0.0,0.0,83,0.00,,,0.00,Wunderground v.1.15,2013-09-12 03:51:00,
2013-09-11 23:52:00,67.7,62.0,30.04,NE,54,0.0,0.0,82,0.00,,,0.00,Wunderground v.1.15,2013-09-12 03:52:00,
2013-09-11 23:53:00,67.7,62.3,30.04,NE,54,0.0,0.0,83,0.00,,,0.00,Wunderground v.1.15,2013-09-12 03:53:00,
2013-09-11 23:54:00,70.8,65.7,30.06,SSW,194,0.0,8.0,84,0.00,,,0.00,Wunderground v.1.15,2013-09-12 03:54:00,
2013-09-11 23:55:00,67.7,62.3,30.04,NE,54,0.0,0.0,83,0.00,,,0.00,Wunderground v.1.15,2013-09-12 03:55:00,
2013-09-11 23:56:00,67.7,62.3,30.04,NE,54,0.0,0.0,83,0.00,,,0.00,Wunderground v.1.15,2013-09-12 03:56:00,
2013-09-11 23:57:00,67.7,62.3,30.03,NE,54,0.0,0.0,83,0.00,,,0.00,Wunderground v.1.15,2013-09-12 03:57:00,
2013-09-11 23:59:00,71.6,65.8,30.06,SSW,192,1.0,4.0,82,0.00,,,0.00,Wunderground v.1.15,2013-09-12 03:59:00,